20070914,4881
20070918,4845
20070919,5775
20070920,6284
20070921,6764
20070925,7436
20070926,8045
20070927,8728
20070928,8788
20071001,10347
20071002,11094
20071003,11086
20071004,11444
20071005,13103
20071009,13414
20071010,14391
20071011,15279
20071012,16252
20071015,16913
20071016,18065
20071017,18820
20071018,18994
20071019,18804
20071022,18678
20071023,18691
20071024,20088
20071025,20581
20071026,21221
20071029,21884
20071030,22691
20071031,22999
20071101,24267
20071102,24357
20071105,24758
20071106,25143
20071107,25423
20071108,25095
20071109,25123
20071112,24683
20071113,24129
20071114,24817
20071115,25602
20071116,25817
20071119,26364
20071120,26674
20071121,26361
20071122,25150
20071126,25557
20071127,26152
20071128,26451
20071129,27004
20071130,27161
20071203,28553
20071204,28979
20071205,29356
20071206,30251
20071207,30521
20071210,30570
20071211,30727
20071212,30779
20071213,31671
20071214,32035
20071217,32514
20071218,31141
20071219,31288
20071220,31059
20071221,31555
20071225,33107
20071226,33122
20071227,33605
20071228,33532
20080104,33649
20080107,33629
20080108,33320
20080109,32745
20080110,33101
20080111,32331
20080115,31785
20080116,30919
20080117,30484
20080118,30289
20080121,29294
20080122,26692
20080123,25140
20080124,26277
20080125,25856
20080128,27651
20080129,27792
20080130,28191
20080131,27790
20080201,28126
20080204,28745
20080205,29574
20080206,29577
20080207,28923
20080208,28653
20080212,27135
20080213,27044
20080214,27411
20080215,28514
20080218,28953
20080219,28929
20080220,28983
20080221,28391
20080222,28960
20080225,28483
20080226,29050
20080227,29515
20080228,29583
20080229,29080
20080303,28340
20080304,27242
20080305,26942
20080306,27194
20080307,27050
20080310,25745
20080311,25462
20080312,26362
20080313,26161
20080314,24646
20080317,23944
20080318,22355
20080319,23112
20080321,22917
20080324,23001
20080325,23091
20080326,24312
20080327,24209
20080328,24315
20080331,25369
20080401,24692
20080402,25000
20080403,25375
20080404,25500
20080407,25062
20080408,25529
20080409,25342
20080410,25235
20080411,25337
20080414,25289
20080415,25174
20080416,25876
20080417,26329
20080418,26949
20080421,27373
20080422,27444
20080423,27519
20080424,27873
20080425,27942
20080428,28483
20080430,28486
20080501,28687
20080502,28908
20080507,29074
20080508,28901
20080509,28189
20080512,27803
20080513,27910
20080514,27984
20080515,28429
20080516,28633
20080519,28679
20080520,28783
20080521,28346
20080522,28354
20080523,28288
20080526,27755
20080527,27481
20080528,27496
20080529,27931
20080530,28275
20080602,28570
20080603,27626
20080604,27600
20080605,26670
20080606,27311
20080609,27065
20080610,26790
20080611,26570
20080612,26711
20080613,27101
20080616,26929
20080617,27199
20080618,27396
20080619,26932
20080620,26692
20080623,25701
20080624,25366
20080625,24784
20080626,25176
20080627,25029
20080630,23951
20080701,23646
20080702,22320
20080703,23277
20080704,22287
20080707,22484
20080708,22727
20080709,22454
20080710,23128
20080711,23169
20080714,22671
20080715,22428
20080716,21097
20080717,20770
20080718,21451
20080722,21864
20080723,22548
20080724,24016
20080725,23541
20080728,23379
20080729,23250
20080730,22690
20080731,23445
20080801,23570
20080804,23830
20080805,24087
20080806,24676
20080807,25067
20080808,25167
20080811,25040
20080812,25463
20080813,24744
20080814,24572
20080815,24047
20080818,24104
20080819,23590
20080820,23302
20080821,23402
20080822,22826
20080825,23182
20080826,23010
20080827,22767
20080828,22804
20080829,22340
20080901,22978
20080902,22503
20080903,22969
20080904,22789
20080905,22170
20080908,21796
20080909,22008
20080910,21409
20080911,20984
20080912,20329
20080916,18408
20080917,17915
20080918,17301
20080919,17183
20080922,18404
20080924,17961
20080925,17848
20080926,17497
20080929,16859
20080930,15146
20081001,15942
20081002,16089
20081003,15784
20081006,15098
20081007,13174
20081008,12626
20081009,11949
20081010,11876
20081014,12219
20081015,12175
20081016,11147
20081017,11172
20081020,10594
20081021,10788
20081022,10933
20081023,9871
20081024,9305
20081027,7955
20081028,7513
20081029,8523
20081030,8753
20081031,8858
20081104,9997
20081105,10617
20081106,10292
20081107,9892
20081110,10423
20081111,10691
20081112,10037
20081113,9344
20081114,9497
20081117,9220
20081118,8996
20081119,8599
20081120,8372
20081121,7883
20081125,8459
20081126,8243
20081127,8458
20081128,8627
20081201,8542
20081202,8137
20081203,8042
20081204,8139
20081205,8355
20081208,8207
20081209,8404
20081210,8423
20081211,8977
20081212,9051
20081215,9072
20081216,9311
20081217,9464
20081218,9099
20081219,9684
20081222,9785
20081224,9321
20081225,9210
20081226,9254
20081229,9105
20081230,9204
20090105,9986
20090106,10335
20090107,10515
20090108,9663
20090109,9499
20090113,8710
20090114,8581
20090115,8810
20090116,8631
20090119,8842
20090120,8705
20090121,8448
20090122,8153
20090123,7994
20090126,7806
20090127,7890
20090128,8051
20090129,8453
20090130,8255
20090202,8505
20090203,8186
20090204,8218
20090205,8251
20090206,8360
20090209,8691
20090210,8812
20090212,8717
20090213,8702
20090216,8931
20090217,8645
20090218,8263
20090219,8289
20090220,8429
20090223,8206
20090224,8341
20090225,8466
20090226,8581
20090227,8614
20090302,8413
20090303,8112
20090304,8004
20090305,8278
20090306,7999
20090309,8009
20090310,7933
20090311,7989
20090312,7876
20090313,7995
20090316,8393
20090317,8636
20090318,8606
20090319,8668
20090323,8756
20090324,9224
20090325,9183
20090326,9302
20090327,9636
20090330,9718
20090331,9267
20090401,9670
20090402,9755
20090403,10434
20090406,10429
20090407,10614
20090408,10489
20090409,10712
20090410,11029
20090413,10942
20090414,11191
20090415,11028
20090416,11547
20090417,11012
20090420,11019
20090421,10894
20090422,10900
20090423,10615
20090424,11093
20090427,11209
20090428,11132
20090430,11113
20090501,11293
20090507,11883
20090508,12280
20090511,12053
20090512,11715
20090513,11840
20090514,11628
20090515,11738
20090518,11866
20090519,14060
20090520,14348
20090521,14505
20090522,14216
20090525,14544
20090526,14746
20090527,14479
20090528,15183
20090529,15475
20090601,15783
20090602,16681
20090603,16721
20090604,16871
20090605,17019
20090608,17499
20090609,16614
20090610,16956
20090611,17574
20090612,17481
20090615,17271
20090616,16735
20090617,16875
20090618,16069
20090619,15852
20090622,16048
20090623,15566
20090624,15539
20090625,15934
20090626,15914
20090629,16276
20090630,16714
20090701,16379
20090702,16675
20090703,16582
20090706,16767
20090707,15722
20090708,15733
20090709,14963
20090710,15163
20090713,14911
20090714,14626
20090715,15301
20090716,16012
20090717,16012
20090721,17154
20090722,17073
20090723,16873
20090724,17637
20090727,18104
20090728,18329
20090729,18423
20090730,18194
20090731,18401
20090803,18312
20090804,19060
20090805,19099
20090806,19045
20090807,18507
20090810,18420
20090811,18079
20090812,18225
20090813,18218
20090814,18943
20090817,18563
20090818,17608
20090819,17951
20090820,17697
20090821,18045
20090824,18600
20090825,19000
20090826,19089
20090827,18972
20090828,19077
20090831,19104
20090901,19076
20090902,18609
20090903,18411
20090904,18482
20090907,18855
20090908,19371
20090909,19363
20090910,19294
20090911,19214
20090914,18900
20090915,18873
20090916,19250
20090917,19679
20090918,19792
20090924,19824
20090925,19727
20090928,19270
20090929,19508
20090930,19377
20091001,19737
20091002,19631
20091005,19668
20091006,19370
20091007,19350
20091008,19245
20091009,19472
20091013,19851
20091014,19778
20091015,20457
20091016,20565
20091019,20524
20091020,20634
20091021,20726
20091022,20574
20091023,20270
20091026,20518
20091027,20230
20091028,19477
20091029,19061
20091030,19036
20091102,18544
20091104,17874
20091105,18809
20091106,19073
20091109,19233
20091110,19697
20091111,19395
20091112,19947
20091113,19580
20091116,19672
20091117,19954
20091118,19802
20091119,19882
20091120,19223
20091124,19446
20091125,19298
20091126,19157
20091127,18376
20091130,18299
20091201,18511
20091202,19159
20091203,19371
20091204,19594
20091207,19955
20091208,19447
20091209,19388
20091210,19293
20091211,19344
20091214,19290
20091215,19173
20091216,19117
20091217,19265
20091218,18999
20091221,19198
20091222,19216
20091224,19898
20091225,20005
20091228,20013
20091229,20060
20091230,20065
20100104,20288
20100105,20566
20100106,20578
20100107,20947
20100108,21059
20100112,21264
20100113,20667
20100114,20772
20100115,20800
20100118,20479
20100119,20570
20100120,20357
20100121,20279
20100122,19426
20100125,19286
20100126,19112
20100127,18900
20100128,18227
20100129,18198
20100201,18321
20100202,18654
20100203,18457
20100204,18823
20100205,18078
20100208,17483
20100209,17530
20100210,17870
20100212,18077
20100215,18113
20100216,18169
20100217,18408
20100218,18670
20100219,18569
20100222,18439
20100223,18303
20100224,18001
20100225,18039
20100226,17830
20100301,18004
20100302,18151
20100303,18362
20100304,18650
20100305,18888
20100308,19308
20100309,19267
20100310,19130
20100311,19240
20100312,19269
20100315,19345
20100316,19088
20100317,19399
20100318,19489
20100319,19382
20100323,18958
20100324,19195
20100325,19398
20100326,19623
20100329,19848
20100330,19915
20100331,20006
20100401,20058
20100402,20260
20100405,20400
20100406,20845
20100407,20724
20100408,20635
20100409,20473
20100412,20497
20100413,20345
20100414,20407
20100415,20405
20100416,20298
20100419,19750
20100420,19416
20100421,19842
20100422,20000
20100423,20076
20100426,20354
20100427,20199
20100428,19788
20100430,19909
20100506,19341
20100507,18489
20100510,18242
20100511,19206
20100512,18757
20100513,18917
20100514,18940
20100517,18379
20100518,18218
20100519,17996
20100520,17157
20100521,16513
20100524,16558
20100525,16536
20100526,15848
20100527,16287
20100528,16782
20100531,17255
20100601,17362
20100602,16882
20100603,17306
20100604,17680
20100607,17303
20100608,16907
20100609,16778
20100610,16915
20100611,17359
20100614,17396
20100615,17577
20100616,17668
20100617,17596
20100618,17699
20100621,17693
20100622,18070
20100623,17665
20100624,17657
20100625,17394
20100628,17246
20100629,17472
20100630,16900
20100701,17041
20100702,16731
20100705,16711
20100706,16513
20100707,16720
20100708,16716
20100709,17037
20100712,17382
20100713,17427
20100714,17595
20100715,17323
20100716,17161
20100720,16879
20100721,16843
20100722,16798
20100723,17052
20100726,17185
20100727,16729
20100728,17002
20100729,16836
20100730,16758
20100802,16797
20100803,17107
20100804,16997
20100805,17203
20100806,17109
20100809,16963
20100810,17214
20100811,16930
20100812,16529
20100813,16791
20100816,16887
20100817,16722
20100818,16724
20100819,16783
20100820,16668
20100823,16629
20100824,16649
20100825,16196
20100826,16050
20100827,15966
20100830,16058
20100831,15780
20100901,15578
20100902,15938
20100903,15942
20100906,16008
20100907,16126
20100908,15981
20100909,16065
20100910,16169
20100913,16112
20100914,16247
20100915,16427
20100916,16644
20100917,16610
20100921,16878
20100922,16608
20100924,16438
20100927,16675
20100928,16767
20100929,16672
20100930,16518
20101001,16454
20101004,16889
20101005,16961
20101006,16929
20101007,17108
20101008,16775
20101012,16661
20101013,16330
20101014,16582
20101015,16485
20101018,16203
20101019,16155
20101020,15994
20101021,15805
20101022,16005
20101025,15833
20101026,15868
20101027,15823
20101028,15778
20101029,15535
20101101,15453
20101102,15595
20101104,15728
20101105,15964
20101108,16151
20101109,15900
20101110,16037
20101111,16019
20101112,15938
20101115,15459
20101116,15468
20101117,15054
20101118,15015
20101119,15098
20101122,14806
20101124,14698
20101125,14600
20101126,14500
20101129,14170
20101130,14276
20101201,14544
20101202,15083
20101203,15157
20101206,14949
20101207,14982
20101208,15231
20101209,15078
20101210,14585
20101213,14820
20101214,14906
20101215,15061
20101216,14839
20101217,14873
20101220,14858
20101221,14732
20101222,14896
20101224,14808
20101227,14808
20101228,14616
20101229,14648
20101230,14665
20110104,15059
20110105,15077
20110106,15156
20110107,14933
20110111,14244
20110112,14392
20110113,14614
20110114,14447
20110117,14251
20110118,14051
20110119,14172
20110120,14128
20110121,14162
20110124,14059
20110125,14174
20110126,13901
20110127,13901
20110128,13749
20110131,13250
20110201,13210
20110202,13006
20110203,13117
20110204,13197
20110207,13093
20110208,13138
20110209,12845
20110210,12502
20110214,12641
20110215,13092
20110216,13122
20110217,13228
20110218,13200
20110221,13006
20110222,13025
20110223,12836
20110224,12705
20110225,12195
20110228,12282
20110301,12423
20110302,12894
20110303,12909
20110304,13004
20110307,12980
20110308,12708
20110309,12898
20110310,12923
20110311,12739
20110314,12451
20110315,12546
20110316,12082
20110317,11980
20110318,12157
20110322,12017
20110323,12180
20110324,12291
20110325,12482
20110328,12696
20110329,12762
20110330,13057
20110331,13350
20110401,13378
20110404,13624
20110405,13840
20110406,14155
20110407,14298
20110408,14303
20110411,14069
20110412,13781
20110413,13657
20110414,13777
20110415,13712
20110418,13489
20110419,13227
20110420,13258
20110421,13512
20110422,13391
20110425,13412
20110426,13315
20110427,13200
20110428,13278
20110502,13005
20110506,12032
20110509,12226
20110510,12140
20110511,12236
20110512,12332
20110513,12134
20110516,12189
20110517,12060
20110518,12033
20110519,12022
20110520,11961
20110523,11999
20110524,11660
20110525,11668
20110526,11556
20110527,11550
20110530,11663
20110531,11718
20110601,11959
20110602,11943
20110603,11772
20110606,11583
20110607,11589
20110608,11661
20110609,11514
20110610,11516
20110613,11404
20110614,11305
20110615,11432
20110616,11305
20110617,11091
20110620,10919
20110621,10656
20110622,10646
20110623,10577
20110624,10561
20110627,10805
20110628,10879
20110629,10945
20110630,11055
20110701,11158
20110704,11272
20110705,11373
20110706,11377
20110707,11315
20110708,11531
20110711,11326
20110712,11043
20110713,10770
20110714,10794
20110715,10878
20110719,10795
20110720,10865
20110721,10739
20110722,10672
20110725,10745
20110726,10831
20110727,10665
20110728,10584
20110729,10380
20110801,10302
20110802,10231
20110803,9990
20110804,10141
20110805,9895
20110808,9461
20110809,9043
20110810,8949
20110811,9083
20110812,9016
20110815,8979
20110816,8989
20110817,8854
20110818,8775
20110819,8414
20110822,8282
20110823,8429
20110824,8498
20110825,8380
20110826,8237
20110829,8020
20110830,8325
20110831,8457
20110901,8538
20110902,8529
20110905,8459
20110906,8373
20110907,8501
20110908,8670
20110909,8733
20110912,8515
20110913,8072
20110914,7968
20110915,8046
20110916,8146
20110920,8036
20110921,8072
20110922,8059
20110926,7556
20110927,7444
20110928,7707
20110929,7644
20110930,7680
20111003,7624
20111004,7351
20111005,7230
20111006,7226
20111007,7266
20111011,7606
20111012,7504
20111013,7781
20111014,7715
20111017,7787
20111018,7715
20111019,7495
20111020,7609
20111021,7473
20111024,7427
20111025,7478
20111026,7581
20111027,7619
20111028,7682
20111031,8113
20111101,8063
20111102,7850
20111104,7912
20111107,7928
20111108,7895
20111109,7823
20111110,7572
20111111,7532
20111114,7428
20111115,7269
20111116,7025
20111117,7031
20111118,6840
20111121,6703
20111122,6444
20111124,6317
20111125,6438
20111128,6362
20111129,6604
20111130,6545
20111201,6461
20111202,6626
20111205,6834
20111206,6787
20111207,6768
20111208,6773
20111209,6625
20111212,6535
20111213,6350
20111214,6317
20111215,6185
20111216,6107
20111219,6085
20111220,5950
20111221,5823
20111222,5970
20111226,5957
20111227,5992
20111228,5925
20111229,5866
20111230,5791
20120104,5892
20120105,5953
20120106,5943
20120110,6000
20120111,6240
20120112,6288
20120113,6350
20120116,6402
20120117,6469
20120118,6677
20120119,6658
20120120,6814
20120123,6820
20120124,6899
20120125,7068
20120126,7140
20120127,7148
20120130,7171
20120131,6887
20120201,7030
20120202,7222
20120203,7303
20120206,7417
20120207,7517
20120208,7481
20120209,7553
20120210,7688
20120213,7627
20120214,7670
20120215,7831
20120216,7982
20120217,8181
20120220,8289
20120221,8310
20120222,8396
20120223,8086
20120224,8016
20120227,8167
20120228,7828
20120229,8081
20120301,8147
20120302,8101
20120305,8077
20120306,7871
20120307,7588
20120308,7634
20120309,7701
20120312,8048
20120313,8031
20120314,8238
20120315,8312
20120316,8069
20120319,7984
20120321,7896
20120322,7986
20120323,7611
20120326,7659
20120327,7562
20120328,7612
20120329,7522
20120330,7390
20120402,7690
20120403,7674
20120404,7880
20120405,7741
20120406,7744
20120409,7658
20120410,7567
20120411,7394
20120412,7377
20120413,7483
20120416,7345
20120417,7327
20120418,7466
20120419,7489
20120420,7488
20120423,7441
20120424,7173
20120425,7157
20120426,7162
20120427,7164
20120501,7066
20120502,7118
20120507,6671
20120508,6769
20120509,6589
20120510,6413
20120511,6440
20120514,6345
20120515,6233
20120516,6320
20120517,6130
20120518,6053
20120521,6027
20120522,6053
20120523,5994
20120524,5839
20120525,5959
20120528,5964
20120529,6057
20120530,6042
20120531,5879
20120601,5789
20120604,5679
20120605,5714
20120606,5750
20120607,5998
20120608,6111
20120611,6056
20120612,5943
20120613,6059
20120614,6070
20120615,5912
20120618,5902
20120619,5720
20120620,5733
20120621,5802
20120622,5859
20120625,5762
20120626,5673
20120627,5667
20120628,5697
20120629,5683
20120702,6000
20120703,6070
20120704,6236
20120705,6282
20120706,6281
20120709,6152
20120710,6029
20120711,6132
20120712,6131
20120713,6001
20120717,5987
20120718,5964
20120719,5940
20120720,5948
20120723,5873
20120724,5647
20120725,5615
20120726,5595
20120727,5566
20120730,5614
20120731,5737
20120801,5721
20120802,5811
20120803,5750
20120806,5775
20120807,5826
20120808,5930
20120809,5894
20120810,5881
20120813,5787
20120814,5820
20120815,5833
20120816,5840
20120817,5866
20120820,5862
20120821,5840
20120822,5905
20120823,5812
20120824,5820
20120827,5759
20120828,5632
20120829,5565
20120830,5526
20120831,5502
20120903,5445
20120904,5470
20120905,5528
20120906,5455
20120907,5527
20120910,5618
20120911,5592
20120912,5580
20120913,5610
20120914,5573
20120918,6067
20120919,6115
20120920,6079
20120921,6012
20120924,6196
20120925,6246
20120926,6225
20120927,6148
20120928,6196
20121001,6261
20121002,6331
20121003,6360
20121004,6432
20121005,6542
20121009,6277
20121010,6308
20121011,6169
20121012,6340
20121015,6255
20121016,6242
20121017,6183
20121018,6234
20121019,6284
20121022,6174
20121023,6254
20121024,6165
20121025,6167
20121026,6208
20121029,6080
20121030,5999
20121031,5930
20121101,6049
20121102,6136
20121105,6173
20121106,6039
20121107,6070
20121108,6140
20121109,6086
20121112,6009
20121113,6050
20121114,6032
20121115,6092
20121116,6179
20121119,6065
20121120,6050
20121121,6043
20121122,6127
20121126,6129
20121127,6112
20121128,6216
20121129,6202
20121130,6398
20121203,6509
20121204,6474
20121205,6496
20121206,6580
20121207,6659
20121210,6599
20121211,6584
20121212,6562
20121213,6582
20121214,6540
20121217,6620
20121218,6603
20121219,6681
20121220,6751
20121221,6729
20121225,6595
20121226,6648
20121227,6780
20121228,6786
20130104,7194
20130107,7194
20130108,7104
20130109,7102
20130110,7204
20130111,7317
20130115,7371
20130116,7288
20130117,7174
20130118,7357
20130121,7403
20130122,7378
20130123,7230
20130124,7188
20130125,7257
20130128,7454
20130129,7382
20130130,7387
20130131,7473
20130201,7504
20130204,7547
20130205,7441
20130206,7504
20130207,7517
20130208,7419
20130212,7298
20130213,7182
20130214,7200
20130215,7049
20130218,7072
20130219,7069
20130220,7153
20130221,7140
20130222,6904
20130225,6981
20130226,6911
20130227,6711
20130228,6824
20130301,6595
20130304,6659
20130305,6543
20130306,6649
20130307,6819
20130308,6962
20130311,7139
20130312,7135
20130313,7060
20130314,6931
20130315,7044
20130318,6888
20130319,6854
20130321,6544
20130322,6417
20130325,6400
20130326,6340
20130327,6368
20130328,6336
20130329,6407
20130401,6399
20130402,6356
20130403,6474
20130404,6291
20130405,6397
20130408,6522
20130409,6560
20130410,6452
20130411,6558
20130412,6590
20130415,6464
20130416,6360
20130417,6602
20130418,6577
20130419,6690
20130422,6785
20130423,6756
20130424,6711
20130425,6683
20130426,6733
20130430,6583
20130501,6583
20130502,6594
20130507,6741
20130508,6796
20130509,6773
20130510,6837
20130513,6871
20130514,6722
20130515,6764
20130516,6917
20130517,6974
20130520,7038
20130521,6929
20130522,6835
20130523,6794
20130524,6523
20130527,6449
20130528,6550
20130529,6574
20130530,6434
20130531,6380
20130603,6182
20130604,6073
20130605,6119
20130606,6043
20130607,5915
20130610,5866
20130611,5773
20130612,5478
20130613,5441
20130614,5311
20130617,5433
20130618,5414
20130619,5386
20130620,5454
20130621,5243
20130624,5297
20130625,5129
20130626,5136
20130627,5011
20130628,5136
20130701,5363
20130702,5481
20130703,5476
20130704,5236
20130705,5282
20130708,5358
20130709,5227
20130710,5314
20130711,5234
20130712,5268
20130716,5391
20130717,5279
20130718,5258
20130719,5336
20130722,5290
20130723,5238
20130724,5253
20130725,5228
20130726,5104
20130729,4966
20130730,4898
20130731,4695
20130801,4641
20130802,4698
20130805,4569
20130806,4580
20130807,4432
20130808,4422
20130809,4496
20130812,4463
20130813,4564
20130814,4670
20130815,4679
20130816,4651
20130819,4464
20130820,4315
20130821,4309
20130822,4203
20130823,4301
20130826,4411
20130827,4364
20130828,4074
20130829,3934
20130830,4122
20130902,4168
20130903,4278
20130904,4068
20130905,4186
20130906,4360
20130909,4459
20130910,4464
20130911,4697
20130912,4774
20130913,4687
20130917,4711
20130918,4687
20130919,4647
20130920,4998
20130924,4701
20130925,4657
20130926,4694
20130927,4745
20130930,4633
20131001,4559
20131002,4575
20131003,4544
20131004,4714
20131007,4737
20131008,4687
20131009,4707
20131010,4792
20131011,4906
20131015,4963
20131016,4913
20131017,4919
20131018,4899
20131021,4977
20131022,5011
20131023,5021
20131024,4958
20131025,4937
20131028,4928
20131029,4875
20131030,5027
20131031,5071
20131101,5106
20131105,5174
20131106,5177
20131107,5086
20131108,4979
20131111,4985
20131112,4869
20131113,4808
20131114,4796
20131115,4932
20131118,4930
20131119,5061
20131120,5114
20131121,5041
20131122,4942
20131125,4947
20131126,5063
20131127,4992
20131128,5015
20131129,5058
20131202,5153
20131203,5225
20131204,5206
20131205,5173
20131206,5213
20131209,5287
20131210,5420
20131211,5352
20131212,5264
20131213,5205
20131216,5069
20131217,5095
20131218,5042
20131219,5108
20131220,5076
20131224,5227
20131225,5217
20131226,5240
20131227,5260
20131230,5314
20140106,5150
20140107,5115
20140108,5087
20140109,5118
20140110,5136
20140114,5112
20140115,5124
20140116,5208
20140117,5180
20140120,5095
20140121,5151
20140122,5153
20140123,5203
20140124,5128
20140127,4925
20140128,4744
20140129,4788
20140130,4754
20140131,4701
20140203,4712
20140204,4586
20140205,4605
20140206,4630
20140207,4662
20140210,4734
20140212,4748
20140213,4781
20140214,4653
20140217,4676
20140218,4726
20140219,4744
20140220,4751
20140221,4716
20140224,4774
20140225,4785
20140226,4767
20140227,4780
20140228,4751
20140303,4754
20140304,4706
20140305,4800
20140306,4860
20140307,5023
20140310,5113
20140311,5142
20140312,5083
20140313,5040
20140314,4965
20140317,4925
20140318,4949
20140319,4956
20140320,5004
20140324,4991
20140325,5051
20140326,5083
20140327,5101
20140328,5142
20140331,5276
20140401,5312
20140402,5381
20140403,5467
20140404,5402
20140407,5359
20140408,5355
20140409,5212
20140410,5313
20140411,5331
20140414,5314
20140415,5325
20140416,5307
20140417,5219
20140418,5333
20140421,5333
20140422,5352
20140423,5313
20140424,5245
20140425,5234
20140428,5235
20140430,5240
20140501,5177
20140502,5176
20140507,5175
20140508,5111
20140509,5111
20140512,5286
20140513,5403
20140514,5542
20140515,5611
20140516,5603
20140519,5778
20140520,6042
20140521,6026
20140522,6042
20140523,6155
20140526,6318
20140527,6201
20140528,6095
20140529,6108
20140530,5982
20140602,5973
20140603,6159
20140604,6194
20140605,6232
20140606,6330
20140609,6443
20140610,6517
20140611,6461
20140612,6394
20140613,6383
20140616,6193
20140617,6177
20140618,6299